Zurück zum Katalog

FLOCK 4G 5

AktivWissenschaftSSO
NORAD 62663·PAYLOAD·🇺🇸 United States

Gestartet Jan 14, 2025 von Vandenberg Space Force Base

Loading…

Nächste Überflüge (nächste 24 Stunden)

TLE

AktuellSource: Space-Track

Epoche: Sep 13, 2026, 23:15 UTC

1 62663U 25009BG  26256.96914986  .00007370  00000-0  24242-3 0  9996
2 62663  97.3981 339.1649 0003124  18.5818 341.5537 15.31815908 92525

Verfolge FLOCK 4G 5 in Echtzeit mit AllMySat

Download on the App Store